KC3BAN Weather Reports


Display with metric or nautical units.
time (UTC)temp
F
wind
direction
speed
MPH
gust
MPH
rain 1hr
in
rain 24hr
in
rain mn
in
humidity
%
barometer
mb
20191022092148 59 281 0.0 0.0 0.00 0.00 0.00 96 1015.6
20191022091648 59 251 0.0 0.0 0.00 0.00 0.00 96 1015.6
20191022091148 59 251 0.0 0.0 0.00 0.00 0.00 96 1015.4
20191022090648 59 251 0.0 0.0 0.00 0.00 0.00 96 1015.7
20191022090148 59 248 0.0 0.0 0.00 0.00 0.00 96 1015.8
20191022085648 59 248 0.0 0.0 0.00 0.00 0.00 96 1015.8
20191022085149 59 248 0.0 0.0 0.00 0.00 0.00 96 1015.8
20191022084648 59 248 0.0 0.0 0.00 0.00 0.00 96 1015.9
20191022084148 59 245 0.0 0.0 0.00 0.00 0.00 96 1016.0
20191022083648 59 246 0.0 0.0 0.00 0.00 0.00 96 1016.0
20191022083147 59 246 0.0 0.0 0.00 0.00 0.00 96 1016.0
20191022082644 59 246 0.0 0.0 0.00 0.00 0.00 95 1016.1
20191022082145 59 246 0.0 0.0 0.00 0.00 0.00 95 1016.2
20191022081645 59 247 0.0 0.0 0.00 0.00 0.00 95 1016.3
20191022081144 59 247 0.0 0.0 0.00 0.00 0.00 95 1016.2
20191022080645 59 247 0.0 0.0 0.00 0.00 0.00 95 1016.5
20191022080144 59 247 0.0 0.0 0.00 0.00 0.00 95 1016.5
20191022075644 59 247 0.0 0.0 0.00 0.00 0.00 95 1016.5
20191022075143 59 247 0.0 0.0 0.00 0.00 0.00 95 1016.8
20191022074642 59 247 0.0 0.0 0.00 0.00 0.00 95 1016.5
20191022074142 59 247 0.0 0.0 0.00 0.00 0.00 95 1017.0
20191022073642 59 247 0.0 0.0 0.00 0.00 0.00 95 1017.1
20191022073142 59 247 0.0 0.0 0.00 0.00 0.00 95 1017.3
20191022072642 59 247 0.0 0.0 0.00 0.00 0.00 95 1017.1
20191022072142 59 247 0.0 0.0 0.00 0.00 0.00 95 1017.2
20191022071642 59 247 0.0 0.0 0.00 0.00 0.00 95 1017.2
20191022071140 59 247 0.0 0.0 0.00 0.00 0.00 95 1017.2
20191022070640 59 247 0.0 0.0 0.00 0.00 0.00 95 1017.5
20191022070142 59 247 0.0 0.0 0.00 0.00 0.00 95 1017.5
20191022065638 59 247 0.0 0.0 0.00 0.00 0.00 95 1017.5
20191022065138 59 247 0.0 0.0 0.00 0.00 0.00 95 1017.6
20191022064638 59 247 0.0 0.0 0.00 0.00 0.00 95 1017.7
20191022064138 59 247 0.0 0.0 0.00 0.00 0.00 95 1017.7
20191022063638 59 246 0.0 0.0 0.00 0.00 0.00 95 1017.5
20191022063139 59 246 0.0 0.0 0.00 0.00 0.00 95 1017.8
20191022062637 59 246 0.0 0.0 0.00 0.00 0.00 95 1017.9
20191022062138 59 246 0.0 0.0 0.00 0.00 0.00 95 1018.0
20191022061638 59 246 0.0 0.0 0.00 0.00 0.00 95 1017.9
20191022061138 59 246 0.0 0.0 0.00 0.00 0.00 95 1018.2
20191022060636 59 246 0.0 0.0 0.00 0.00 0.00 95 1018.3
20191022060136 59 246 0.0 0.0 0.00 0.00 0.00 95 1018.1
20191022055636 59 246 0.0 0.0 0.00 0.00 0.00 95 1018.2
20191022055136 58 246 0.0 0.0 0.00 0.00 0.00 95 1018.0
20191022054636 58 246 0.0 0.0 0.00 0.00 0.00 95 1018.1
20191022054136 58 246 0.0 0.0 0.00 0.00 0.00 95 1018.0
20191022053636 58 246 0.0 0.0 0.00 0.00 0.00 95 1018.0
20191022053139 58 246 0.0 0.0 0.00 0.00 0.00 95 1018.0
20191022052636 58 246 0.0 0.0 0.00 0.00 0.00 95 1017.8
20191022052135 58 232 0.0 0.0 0.00 0.00 0.00 95 1017.5
20191022051634 58 232 0.0 0.0 0.00 0.00 0.00 95 1017.7
20191022051134 58 232 0.0 0.0 0.00 0.00 0.00 95 1018.1
20191022050634 58 232 0.0 0.0 0.00 0.00 0.00 95 1018.0
20191022050134 58 232 0.0 0.0 0.00 0.00 0.00 95 1018.1
20191022045633 58 232 0.0 0.0 0.00 0.00 0.00 95 1018.3
20191022045133 58 232 0.0 0.0 0.00 0.00 0.00 95 1018.1
20191022044634 58 232 0.0 0.0 0.00 0.00 0.00 95 1018.0
20191022044134 58 252 0.0 0.0 0.00 0.00 0.00 95 1017.8
20191022043633 58 252 0.0 1.0 0.00 0.00 0.00 95 1017.9
20191022043134 58 252 0.0 1.0 0.00 0.00 0.00 95 1018.0
20191022042632 58 236 0.0 0.0 0.00 0.00 0.00 95 1017.9
20191022042132 58 120 0.0 0.0 0.00 0.00 0.00 95 1017.6
20191022041632 58 221 0.0 0.0 0.00 0.00 0.00 95 1018.1
20191022041133 58 221 0.0 0.0 0.00 0.00 0.00 95 1018.3
20191022040631 58 236 0.0 0.0 0.00 0.00 0.00 95 1018.3
20191022040134 58 313 0.0 0.0 0.00 0.00 0.00 95 1017.7
20191022035631 58 312 0.0 0.0 0.00 0.00 0.00 95 1017.7
20191022035132 58 90 0.0 0.0 0.00 0.00 0.00 95 1017.6
20191022034628 58 90 0.0 0.0 0.00 0.00 0.00 95 1018.0
20191022034127 58 90 0.0 0.0 0.00 0.00 0.00 96 1018.2
20191022033626 58 90 0.0 0.0 0.00 0.00 0.00 96 1018.2
20191022033124 58 90 0.0 0.0 0.00 0.00 0.00 96 1018.1
20191022032623 58 90 0.0 0.0 0.00 0.00 0.00 96 1018.5
20191022032123 57 90 0.0 0.0 0.00 0.00 0.00 96 1018.7
20191022031624 57 90 0.0 0.0 0.00 0.00 0.00 96 1018.7
20191022031121 57 90 0.0 0.0 0.00 0.00 0.00 96 1018.8
20191022030622 57 90 0.0 0.0 0.00 0.00 0.00 96 1018.7
20191022030120 57 90 0.0 0.0 0.00 0.00 0.00 96 1018.8
20191022025617 57 90 0.0 0.0 0.00 0.00 0.00 96 1018.9
20191022025117 57 90 0.0 0.0 0.00 0.00 0.00 96 1018.7
20191022024617 57 90 0.0 0.0 0.00 0.00 0.00 96 1018.8
20191022024117 56 90 0.0 0.0 0.00 0.00 0.00 96 1018.7
20191022023617 56 90 0.0 0.0 0.00 0.00 0.00 96 1018.7
20191022023117 56 90 0.0 0.0 0.00 0.00 0.00 96 1018.7
20191022022618 56 90 0.0 0.0 0.00 0.00 0.00 96 1018.8
20191022022117 56 90 0.0 0.0 0.00 0.00 0.00 96 1018.9
20191022021619 56 237 0.0 0.0 0.00 0.00 0.00 96 1019.0
20191022021118 56 237 0.0 0.0 0.00 0.00 0.00 96 1019.0
20191022020617 55 238 0.0 0.0 0.00 0.00 0.00 96 1018.8
20191022020118 55 238 0.0 0.0 0.00 0.00 0.00 96 1018.7
20191022015617 55 238 0.0 0.0 0.00 0.00 0.00 96 1018.7
20191022015117 55 238 0.0 0.0 0.00 0.00 0.00 96 1018.7
20191022014617 55 238 0.0 0.0 0.00 0.00 0.00 96 1018.8
20191022014118 55 238 0.0 0.0 0.00 0.00 0.00 96 1018.6
20191022013616 55 237 0.0 0.0 0.00 0.00 0.00 96 1018.4
20191022013116 54 237 0.0 0.0 0.00 0.00 0.00 96 1018.4
20191022012615 54 237 0.0 0.0 0.00 0.00 0.00 96 1018.4
20191022012115 54 237 0.0 0.0 0.00 0.00 0.00 96 1018.3
20191022011615 53 237 0.0 0.0 0.00 0.00 0.00 96 1018.4
20191022011116 53 237 0.0 0.0 0.00 0.00 0.00 96 1018.5
20191022010615 53 237 0.0 0.0 0.00 0.00 0.00 95 1018.4
20191022010115 53 237 0.0 0.0 0.00 0.00 0.00 95 1018.4
20191022005613 53 237 0.0 0.0 0.00 0.00 0.00 95 1018.3
20191022005111 53 237 0.0 0.0 0.00 0.00 0.00 95 1018.1
20191022004614 53 237 0.0 0.0 0.00 0.00 0.00 95 1018.2
20191022004111 53 237 0.0 0.0 0.00 0.00 0.00 95 1018.3
20191022003610 53 237 0.0 0.0 0.00 0.00 0.00 95 1018.2
20191022003110 53 237 0.0 0.0 0.00 0.00 0.00 95 1018.0
20191022002610 53 237 0.0 0.0 0.00 0.00 0.00 94 1018.1
20191022002109 53 237 0.0 0.0 0.00 0.00 0.00 94 1018.1
20191022001610 53 237 0.0 0.0 0.00 0.00 0.00 94 1018.0
20191022001110 54 237 0.0 0.0 0.00 0.00 0.00 94 1017.9
20191022000609 54 237 0.0 0.0 0.00 0.00 0.00 94 1018.0
20191022000110 54 237 0.0 0.0 0.00 0.00 0.00 94 1018.0
20191021235610 54 237 0.0 0.0 0.00 0.00 0.00 94 1018.0
20191021235110 54 237 0.0 0.0 0.00 0.00 0.00 93 1018.0
20191021234607 54 65 0.0 0.0 0.00 0.00 0.00 93 1017.8
20191021234107 54 65 0.0 0.0 0.00 0.00 0.00 93 1017.9
20191021233608 54 65 0.0 0.0 0.00 0.00 0.00 93 1017.9
20191021233107 54 65 0.0 0.0 0.00 0.00 0.00 92 1017.9
20191021232607 54 65 0.0 0.0 0.00 0.00 0.00 92 1017.9
20191021232107 54 65 0.0 0.0 0.00 0.00 0.00 91 1017.9
20191021231609 55 65 0.0 0.0 0.00 0.00 0.00 90 1017.8
20191021231107 55 65 0.0 0.0 0.00 0.00 0.00 90 1017.8
20191021230607 55 65 0.0 0.0 0.00 0.00 0.00 90 1017.8
20191021230107 55 65 0.0 0.0 0.00 0.00 0.00 89 1017.8
20191021225605 56 65 0.0 0.0 0.00 0.00 0.00 88 1017.8
20191021225104 56 65 0.0 0.0 0.00 0.00 0.00 88 1017.6
20191021224605 56 65 0.0 0.0 0.00 0.00 0.00 87 1017.6
20191021224105 57 65 0.0 0.0 0.00 0.00 0.00 86 1017.6
20191021223605 57 65 0.0 0.0 0.00 0.00 0.00 85 1017.6
20191021223105 58 65 0.0 0.0 0.00 0.00 0.00 85 1017.6
20191021222606 58 65 0.0 0.0 0.00 0.00 0.00 84 1017.5
20191021222105 59 65 0.0 0.0 0.00 0.00 0.00 81 1017.3
20191021221605 59 65 0.0 0.0 0.00 0.00 0.00 81 1017.2
20191021221104 60 65 0.0 0.0 0.00 0.00 0.00 79 1017.4
20191021220603 60 65 0.0 0.0 0.00 0.00 0.00 78 1017.4
20191021220104 60 65 0.0 0.0 0.00 0.00 0.00 78 1017.4
20191021215603 61 65 0.0 0.0 0.00 0.00 0.00 78 1017.4
20191021215103 61 65 0.0 0.0 0.00 0.00 0.00 76 1017.4
20191021214603 62 65 0.0 0.0 0.00 0.00 0.00 76 1017.2
20191021214103 62 65 0.0 0.0 0.00 0.00 0.00 76 1017.2
20191021213602 62 65 0.0 0.0 0.00 0.00 0.00 74 1017.3
20191021213102 63 65 0.0 0.0 0.00 0.00 0.00 74 1017.1
20191021212606 63 65 0.0 0.0 0.00 0.00 0.00 73 1017.1
20191021212103 64 65 0.0 0.0 0.00 0.00 0.00 72 1017.1
20191021211600 64 65 0.0 0.0 0.00 0.00 0.00 71 1017.3
20191021211101 65 65 0.0 0.0 0.00 0.00 0.00 69 1017.3
20191021210600 65 65 0.0 0.0 0.00 0.00 0.00 69 1017.5
20191021210101 66 65 0.0 0.0 0.00 0.00 0.00 68 1017.5
20191021205600 66 100 0.0 1.0 0.00 0.00 0.00 68 1017.5
20191021205101 66 100 0.0 2.0 0.00 0.00 0.00 68 1017.5
20191021204601 66 73 0.0 2.0 0.00 0.00 0.00 67 1017.5
20191021204101 66 91 0.0 1.0 0.00 0.00 0.00 66 1017.5
20191021203601 67 74 0.0 4.0 0.00 0.00 0.00 66 1017.4
20191021203101 67 65 0.0 4.0 0.00 0.00 0.00 66 1017.3
20191021202600 67 105 0.0 1.0 0.00 0.00 0.00 65 1017.4
20191021202100 67 137 0.0 1.0 0.00 0.00 0.00 64 1017.5
20191021201559 67 64 0.0 1.0 0.00 0.00 0.00 62 1017.6
20191021201059 68 72 0.0 1.0 0.00 0.00 0.00 61 1017.5
20191021200559 68 66 0.0 1.0 0.00 0.00 0.00 63 1017.4
20191021200100 68 66 0.0 1.0 0.00 0.00 0.00 64 1017.3
20191021195602 68 232 0.0 1.0 0.00 0.00 0.00 66 1017.3
20191021195059 67 136 0.0 1.0 0.00 0.00 0.00 64 1017.2
20191021194600 67 91 0.0 3.0 0.00 0.00 0.00 64 1017.1
20191021194100 67 112 0.0 3.0 0.00 0.00 0.00 63 1017.0
20191021193557 67 69 0.0 0.0 0.00 0.00 0.00 64 1017.1
20191021193057 67 90 1.0 4.0 0.00 0.00 0.00 65 1017.1
20191021192557 66 59 1.0 4.0 0.00 0.00 0.00 62 1017.1
20191021192055 66 66 0.0 4.0 0.00 0.00 0.00 62 1017.2
20191021191555 67 66 0.0 3.0 0.00 0.00 0.00 63 1017.2
20191021191055 66 55 1.0 7.0 0.00 0.00 0.00 63 1017.0
20191021190555 66 68 1.0 7.0 0.00 0.00 0.00 64 1017.0
20191021190055 66 88 0.0 4.0 0.00 0.00 0.00 64 1017.0
20191021185555 66 62 1.0 5.0 0.00 0.00 0.00 64 1017.0
20191021185055 66 60 1.0 5.0 0.00 0.00 0.00 62 1017.2
20191021184555 67 49 1.0 5.0 0.00 0.00 0.00 62 1017.2
20191021184055 67 79 0.0 3.0 0.00 0.00 0.00 63 1017.0
20191021183555 67 22 0.0 3.0 0.00 0.00 0.00 63 1017.3
20191021183055 67 81 0.0 0.0 0.00 0.00 0.00 63 1017.3
20191021182553 67 52 0.0 1.0 0.00 0.00 0.00 63 1017.3
20191021182053 67 108 0.0 1.0 0.00 0.00 0.00 63 1017.2
20191021181553 67 56 0.0 2.0 0.00 0.00 0.00 64 1017.4
20191021181055 66 202 0.0 2.0 0.00 0.00 0.00 64 1017.5
20191021180555 66 30 0.0 4.0 0.00 0.00 0.00 67 1017.3
20191021180053 65 181 0.0 4.0 0.00 0.00 0.00 67 1017.4
20191021175553 65 73 0.0 4.0 0.00 0.00 0.00 65 1017.4
20191021175053 65 90 0.0 6.0 0.00 0.00 0.00 66 1017.5
20191021174553 65 8 1.0 6.0 0.00 0.00 0.00 67 1017.5
20191021174052 65 65 0.0 5.0 0.00 0.00 0.00 65 1017.6
20191021173553 65 100 0.0 2.0 0.00 0.00 0.00 67 1017.8
20191021173052 65 51 0.0 2.0 0.00 0.00 0.00 66 1017.9
20191021172553 65 91 0.0 1.0 0.00 0.00 0.00 67 1017.9
20191021172053 65 80 0.0 4.0 0.00 0.00 0.00 67 1017.9
20191021171553 65 106 0.0 4.0 0.00 0.00 0.00 66 1018.1
20191021171053 65 350 0.0 1.0 0.00 0.00 0.00 68 1018.1
20191021170553 64 233 0.0 1.0 0.00 0.00 0.00 67 1018.3
20191021170053 64 221 0.0 3.0 0.00 0.00 0.00 69 1018.3
20191021165553 63 191 0.0 3.0 0.00 0.00 0.00 69 1018.3
20191021165053 63 234 1.0 5.0 0.00 0.00 0.00 71 1018.2
20191021164553 62 314 1.0 5.0 0.00 0.00 0.00 70 1018.2
20191021164055 62 294 1.0 7.0 0.00 0.00 0.00 72 1018.3
20191021163555 62 58 1.0 7.0 0.00 0.00 0.00 71 1018.2
20191021163053 62 65 1.0 7.0 0.00 0.00 0.00 72 1018.1
20191021162553 62 31 1.0 6.0 0.00 0.00 0.00 72 1018.3
20191021162053 61 357 1.0 6.0 0.00 0.00 0.00 73 1018.3
20191021161553 61 42 1.0 6.0 0.00 0.00 0.00 72 1018.3
20191021161058 61 62 1.0 6.0 0.00 0.00 0.00 77 1018.4
20191021160553 61 61 0.0 6.0 0.00 0.00 0.00 75 1018.4
20191021160052 61 45 1.0 1.0 0.00 0.00 0.00 76 1018.4
20191021155553 60 60 1.0 9.0 0.00 0.00 0.00 78 1018.4
20191021155051 60 70 0.0 9.0 0.00 0.00 0.00 77 1018.4
20191021154550 60 59 0.0 5.0 0.00 0.00 0.00 79 1018.5
20191021154050 59 77 1.0 5.0 0.00 0.00 0.00 79 1018.6
20191021153550 59 80 1.0 5.0 0.00 0.00 0.00 79 1018.6
20191021153051 59 68 1.0 5.0 0.00 0.00 0.00 80 1018.5
20191021152550 59 68 2.0 9.0 0.00 0.00 0.00 81 1018.6
20191021152051 58 17 1.0 9.0 0.00 0.00 0.00 81 1018.6
20191021151554 58 91 1.0 4.0 0.00 0.00 0.00 81 1018.7
20191021151050 58 47 1.0 4.0 0.00 0.00 0.00 84 1018.8
20191021150550 58 323 0.0 7.0 0.00 0.00 0.00 84 1018.9
20191021150050 58 101 1.0 7.0 0.00 0.00 0.00 84 1018.8
20191021145551 57 77 1.0 6.0 0.00 0.00 0.00 85 1018.9
20191021145050 57 122 1.0 6.0 0.00 0.00 0.00 85 1019.1
20191021144550 57 281 0.0 6.0 0.00 0.00 0.00 85 1019.1
20191021144050 57 359 1.0 7.0 0.00 0.00 0.00 85 1019.2
20191021143550 57 92 2.0 7.0 0.00 0.00 0.00 86 1019.1
20191021143050 57 90 2.0 7.0 0.00 0.00 0.00 86 1019.1
20191021142550 56 21 2.0 7.0 0.00 0.00 0.00 86 1019.2
20191021142050 56 46 2.0 8.0 0.00 0.00 0.00 87 1019.2
20191021141551 56 83 1.0 8.0 0.00 0.00 0.00 87 1019.1
20191021141050 56 55 0.0 4.0 0.00 0.00 0.00 88 1019.0
20191021140550 56 30 0.0 4.0 0.00 0.00 0.00 90 1019.0
20191021140050 56 348 1.0 4.0 0.00 0.00 0.00 90 1019.1
20191021135549 55 81 2.0 6.0 0.00 0.00 0.00 91 1018.9
20191021135049 55 49 1.0 6.0 0.00 0.00 0.00 90 1018.7
20191021134550 55 89 0.0 3.0 0.00 0.00 0.00 92 1018.7
20191021134050 55 217 0.0 2.0 0.00 0.00 0.00 93 1018.9
20191021133549 55 232 0.0 2.0 0.00 0.00 0.00 93 1018.6
20191021133050 55 51 1.0 8.0 0.00 0.00 0.00 93 1018.4
20191021132550 54 153 1.0 10.0 0.00 0.00 0.00 93 1018.4
20191021132050 54 82 0.0 10.0 0.00 0.00 0.00 94 1018.4
20191021131549 54 328 0.0 1.0 0.00 0.00 0.00 94 1018.5
20191021131049 54 87 0.0 3.0 0.00 0.00 0.00 95 1018.6
20191021130550 54 32 0.0 3.0 0.00 0.00 0.00 95 1018.6
20191021130050 54 97 0.0 2.0 0.00 0.00 0.00 95 1018.6
20191021125550 54 74 0.0 2.0 0.00 0.00 0.00 95 1018.6
20191021125048 54 72 0.0 1.0 0.00 0.00 0.00 96 1018.5
20191021124544 54 89 0.0 1.0 0.00 0.00 0.00 96 1018.4
20191021124044 54 56 0.0 1.0 0.00 0.00 0.00 96 1018.2
20191021123542 54 350 0.0 0.0 0.00 0.00 0.00 96 1018.2
20191021123041 53 350 0.0 0.0 0.00 0.00 0.00 96 1018.0
20191021122541 53 350 0.0 1.0 0.00 0.00 0.00 96 1017.8
20191021122040 53 90 0.0 1.0 0.00 0.00 0.00 96 1017.7
20191021121541 53 71 0.0 1.0 0.00 0.00 0.00 96 1017.7
20191021121040 53 62 0.0 1.0 0.00 0.00 0.00 96 1017.7
20191021120540 53 30 0.0 1.0 0.00 0.00 0.00 96 1017.6
20191021120041 53 76 0.0 0.0 0.00 0.00 0.00 96 1017.5
20191021115540 53 89 0.0 0.0 0.00 0.00 0.00 96 1017.6
20191021115040 53 89 0.0 0.0 0.00 0.00 0.00 96 1017.6
20191021114543 53 89 0.0 1.0 0.00 0.00 0.00 96 1017.5
20191021114038 53 83 0.0 1.0 0.00 0.00 0.00 96 1017.5
20191021113538 53 111 0.0 2.0 0.00 0.00 0.00 96 1017.5
20191021113038 53 64 0.0 2.0 0.00 0.00 0.00 96 1017.3
20191021112536 53 92 0.0 5.0 0.00 0.00 0.00 97 1017.3
20191021112036 53 299 0.0 5.0 0.00 0.00 0.00 97 1017.3
20191021111536 53 101 0.0 2.0 0.00 0.00 0.00 97 1017.1
20191021111036 53 79 0.0 2.0 0.00 0.00 0.00 97 1016.9
20191021110536 53 72 0.0 1.0 0.00 0.00 0.00 97 1016.8
20191021110036 53 71 0.0 1.0 0.00 0.00 0.00 97 1016.7
20191021105536 53 23 0.0 1.0 0.00 0.00 0.00 97 1016.5
20191021105037 53 12 0.0 1.0 0.00 0.00 0.00 97 1016.7
20191021104534 53 128 0.0 1.0 0.00 0.00 0.00 97 1016.7
20191021104032 53 359 0.0 1.0 0.00 0.00 0.00 97 1016.8
20191021103534 53 322 0.0 1.0 0.00 0.00 0.00 97 1016.7
20191021103029 53 239 0.0 1.0 0.00 0.00 0.00 97 1016.7
20191021102528 53 351 0.0 1.0 0.00 0.00 0.00 97 1016.5
20191021102031 53 108 0.0 2.0 0.00 0.00 0.00 97 1016.4
20191021101528 53 94 0.0 2.0 0.00 0.00 0.00 97 1016.4
20191021101028 53 10 0.0 2.0 0.00 0.00 0.00 97 1016.4
20191021100528 53 27 0.0 2.0 0.00 0.00 0.00 97 1016.4
20191021100028 53 79 0.0 1.0 0.00 0.00 0.00 97 1016.5
20191021095528 53 359 0.0 1.0 0.00 0.00 0.00 97 1016.7
20191021095028 53 94 0.0 4.0 0.00 0.00 0.00 97 1016.7
20191021094526 53 17 0.0 4.0 0.00 0.00 0.00 97 1016.7
20191021094026 53 16 0.0 2.0 0.00 0.00 0.00 97 1016.7
20191021093526 53 274 0.0 2.0 0.00 0.00 0.00 97 1016.5
20191021093026 53 1 0.0 2.0 0.00 0.00 0.00 97 1016.4
20191021092526 53 106 0.0 2.0 0.00 0.00 0.00 97 1016.4